Location: Unspecified
(41.1637°N, 24.2901°E)
Time: 15:39:02
(UTC+01:00)

ISS - Pass Details

Date: 23 January 2021
Orbit: 418 x 421 km, 51.6° (Epoch: 27 January)

Event Time Altitude Azimuth Distance (km) Brightness Sun altitude
Rises 17:55:29 0° 270° (W) 2,365 1.7 -16.3°
Reaches altitude 10° 17:57:53 10° 285° (WNW) 1,504 0.0 -16.8°
Maximum altitude 18:00:37 23° 340° (NNW) 962 -1.9 -17.3°
Enters shadow 18:01:44 19° 9° (N) 1,071 -1.9 -17.5°
